Regional Weather Roundup
Issued by NWS

Home | Current Version | Previous Version | Graphics & Text | Print | Product List | Glossary On
Versions: 1 2 3 4 5 6 7 8 9 10 11 12 13 14 15 16 17 18 19 20 21 22 23 24 25 26 27 28 29 30 31 32 33 34 35 36 37 38 39 40 41 42 43 44 45 46 47 48 49 50
993
ASUS44 KMEG 290710
RWRTN
TENNESSEE HOURLY STATE WEATHER ROUNDUP
NATIONAL WEATHER SERVICE MEMPHIS TN
200 AM CDT THU JUN 29 2017

TNZ002-004-019-021-049-052-054-088>092-290800-
WEST TENNESSEE

CITY           SKY/WX    TMP DP  RH WIND       PRES   REMARKS
MEMPHIS INTL   CLEAR     75  69  81 S9        29.99R
NWS MEMPHIS      N/A     75 N/A N/A MISG        N/A
JACKSON        CLEAR     73  67  81 S7        30.01S
SOMERVILLE     PTCLDY    73  68  83 S9        29.99S
COVINGTON      CLEAR     73  66  78 S6        29.98S
UNION CITY     CLEAR     72  66  83 SE6       29.99R
BOLIVAR        PTCLDY    72  66  83 S3        30.01S
HUNTINGDON     PTCLDY    72  66  83 S6        30.00S
LEXINGTON      MOCLDY    68  64  88 CALM      30.03S
SELMER         CLEAR     73  68  83 S7        30.02S
SAVANNAH       PTCLDY    75  68  78 S9        30.02S
$$

TNZ008-025-027-028-033-062-065-066-290800-
NORTH MIDDLE TENNESSEE

CITY           SKY/WX    TMP DP  RH WIND       PRES   REMARKS
NASHVILLE      PTCLDY    72  62  71 CALM      30.06S
PORTLAND       CLEAR     68  61  77 S5        30.05F
CLARKSVILLE    CLOUDY    71  62  73 S5        30.03S
SMYRNA         CLOUDY    67  62  84 CALM      30.08R
COOKEVILLE     PTCLDY    70  61  73 S5        30.10S
GALLATIN       PTCLDY    68  63  83 CALM      30.09S
CROSSVILLE     CLEAR     68  60  75 VRB3      30.16S
$$

TNZ061-075-076-078-094-096-097-290800-
SOUTH MIDDLE TENNESSEE

CITY           SKY/WX    TMP DP  RH WIND       PRES   REMARKS
FAYETTEVILLE   PTCLDY    73  64  73 S9        30.08S
TULLAHOMA      CLEAR     70  61  73 S5        30.11S
WINCHESTER     CLEAR     72  63  73 SE7       30.11S
MCMINNVILLE    CLEAR     72  64  78 CALM      30.11R
COLUMBIA       CLEAR     72  64  78 S5        30.04S
SHELBYVILLE    CLEAR     72  63  73 SE6       30.08R
$$

TNZ017-018-042-046-047-290800-
NORTHEAST TENNESSEE

CITY           SKY/WX    TMP DP  RH WIND       PRES   REMARKS
TRI CITIES     CLOUDY    63  57  81 N3        30.18R
ELIZABETHTON   CLOUDY    61  57  88 CALM      30.19F
$$

TNZ012-013-036-069-073-074-290800-
CENTRAL EAST TENNESSEE

CITY           SKY/WX    TMP DP  RH WIND       PRES   REMARKS
KNOXVILLE      NOT AVBL
OAK RIDGE      PTCLDY    65  58  78 CALM      30.15R
DOWNTOWN KNOXV   N/A     63  63 100 CALM      30.13S
GATLINBURG     CLEAR     63  57  82 CALM      30.13S
MORRISTOWN     CLEAR     66  61  82 CALM      30.14S
JACKSBORO        N/A     63  59  88 NE7       30.17S
$$

TNZ083-085-099-290800-
SOUTHEAST TENNESSEE

CITY           SKY/WX    TMP DP  RH WIND       PRES   REMARKS
CHATTANOOGA    CLEAR     74  63  68 CALM      30.13R
DAYTON         PTSUNNY   66  66 100 CALM      30.12S
$$

SKY/WX REPORTED AS FAIR MEANS FEW OR NO CLOUDS BELOW
12 THOUSAND FEET.





USA.gov is the U.S. government's official web portal to all federal, state and local government web resources and services.